Powrót do katalogu

FENGYUN 1C DEB

AktywnySSO
NORAD 30247·DEBRIS·🇨🇳 China

Wystrzelony May 10, 1999 z Taiyuan Satellite Launch Center

Loading…

Następne Przeloty (najbliższe 24 godziny)

TLE

ŚwieżeSource: Space-Track

Epoka: Sep 14, 2026, 00:13 UTC

1 30247U 99025XG  26257.00970999  .00007521  00000-0  10835-2 0  9990
2 30247  98.2632 170.3748 0168693 208.6811 283.9634 14.67307727 13099

Śledź FENGYUN 1C DEB w czasie rzeczywistym z AllMySat

Download on the App Store